Hourly Weather Actopan

Today, 17 April, Saturday

Time Temperature Precipitation Wind Pressure Humidity
00:00 +23°C° 0 mm 1 mps 598 mmHg 50%
01:00 +22°C° 0 mm 1 mps 598 mmHg 48%
02:00 +22°C° 0 mm 1 mps 598 mmHg 47%
03:00 +21°C° 0 mm 1 mps 598 mmHg 45%
04:00 +21°C° 0 mm 1 mps 598 mmHg 43%
05:00 +20°C° 0 mm 1 mps 598 mmHg 42%
06:00 +22°C° 0 mm 1 mps 599 mmHg 35%
07:00 +24°C° 0 mm 2 mps 600 mmHg 29%
08:00 +25°C° 0 mm 2 mps 601 mmHg 22%
09:00 +27°C° 0 mm 2 mps 601 mmHg 21%
10:00 +28°C° 0 mm 2 mps 601 mmHg 19%
11:00 +29°C° 0 mm 2 mps 601 mmHg 17%
12:00 +30°C° 0 mm 2 mps 601 mmHg 17%
13:00 +31°C° 0 mm 2 mps 600 mmHg 16%
14:00 +31°C° 0 mm 2 mps 600 mmHg 16%
15:00 +29°C° 0.4 mm 2 mps 599 mmHg 28%
16:00 +27°C° 0.4 mm 3 mps 599 mmHg 41%
17:00 +23°C° 0.4 mm 4 mps 598 mmHg 54%
18:00 +22°C° 0.5 mm 3 mps 599 mmHg 58%
19:00 +21°C° 0.5 mm 3 mps 599 mmHg 63%
20:00 +20°C° 0.5 mm 2 mps 599 mmHg 67%
21:00 +20°C° 0.5 mm 2 mps 599 mmHg 71%
22:00 +19°C° 0.5 mm 2 mps 600 mmHg 75%
23:00 +18°C° 0.5 mm 2 mps 600 mmHg 79%

Tomorrow, 18 April, Sunday

Time Temperature Precipitation Wind Pressure Humidity
00:00 +19°C° 0 mm 1 mps 599 mmHg 80%
01:00 +18°C° 0 mm 1 mps 599 mmHg 81%
02:00 +18°C° 0 mm 1 mps 598 mmHg 82%
03:00 +18°C° 0 mm 1 mps 598 mmHg 83%
04:00 +16°C° 0 mm 1 mps 598 mmHg 85%
05:00 +16°C° 0 mm 1 mps 598 mmHg 86%
06:00 +18°C° 0 mm 1 mps 599 mmHg 80%
07:00 +19°C° 0 mm 1 mps 600 mmHg 73%
08:00 +20°C° 0 mm 1 mps 600 mmHg 67%
09:00 +20°C° 0 mm 2 mps 600 mmHg 60%
10:00 +23°C° 0 mm 2 mps 600 mmHg 53%
11:00 +24°C° 0 mm 3 mps 601 mmHg 46%
12:00 +23°C° 0 mm 4 mps 600 mmHg 44%
13:00 +25°C° 0 mm 4 mps 600 mmHg 42%
14:00 +26°C° 0 mm 5 mps 599 mmHg 40%
15:00 +23°C° 0 mm 4 mps 599 mmHg 47%
16:00 +21°C° 0 mm 4 mps 599 mmHg 55%
17:00 +19°C° 0 mm 4 mps 598 mmHg 63%
18:00 +18°C° 0 mm 4 mps 599 mmHg 67%
19:00 +17°C° 0 mm 3 mps 599 mmHg 72%
20:00 +16°C° 0 mm 2 mps 599 mmHg 77%
21:00 +15°C° 0 mm 2 mps 599 mmHg 78%
22:00 +15°C° 0 mm 2 mps 599 mmHg 80%
23:00 +15°C° 0 mm 1 mps 599 mmHg 81%

Day after tomorrow, 19 April, Monday

Time Temperature Precipitation Wind Pressure Humidity
00:00 +14°C° 0 mm 1 mps 599 mmHg 82%
01:00 +14°C° 0 mm 1 mps 598 mmHg 82%
02:00 +14°C° 0 mm 1 mps 598 mmHg 83%
03:00 +13°C° 0 mm 1 mps 598 mmHg 84%
04:00 +13°C° 0 mm 1 mps 598 mmHg 85%
05:00 +13°C° 0 mm 1 mps 598 mmHg 86%
06:00 +15°C° 0 mm 1 mps 599 mmHg 76%
07:00 +16°C° 0 mm 1 mps 599 mmHg 67%
08:00 +17°C° 0 mm 0 mps 600 mmHg 57%
09:00 +21°C° 0 mm 1 mps 600 mmHg 46%
10:00 +24°C° 0 mm 2 mps 601 mmHg 35%
11:00 +26°C° 0 mm 2 mps 601 mmHg 24%
12:00 +27°C° 0 mm 3 mps 600 mmHg 21%
13:00 +28°C° 0 mm 3 mps 600 mmHg 19%
14:00 +30°C° 0 mm 3 mps 599 mmHg 16%
15:00 +28°C° 0 mm 4 mps 599 mmHg 23%
16:00 +26°C° 0 mm 4 mps 599 mmHg 31%
17:00 +25°C° 0 mm 4 mps 598 mmHg 38%
18:00 +22°C° 0 mm 3 mps 598 mmHg 43%
19:00 +20°C° 0 mm 2 mps 598 mmHg 49%
20:00 +20°C° 0 mm 1 mps 598 mmHg 54%
21:00 +19°C° 0 mm 1 mps 598 mmHg 50%
22:00 +19°C° 0 mm 1 mps 598 mmHg 45%
23:00 +18°C° 0 mm 1 mps 598 mmHg 41%

20 April, Tuesday

Time Temperature Precipitation Wind Pressure Humidity
00:00 +18°C° 0 mm 1 mps 598 mmHg 38%
01:00 +16°C° 0 mm 1 mps 598 mmHg 35%
02:00 +16°C° 0 mm 1 mps 597 mmHg 31%
03:00 +15°C° 0 mm 1 mps 597 mmHg 29%
04:00 +15°C° 0 mm 1 mps 598 mmHg 27%
05:00 +15°C° 0 mm 1 mps 598 mmHg 24%
06:00 +18°C° 0 mm 1 mps 599 mmHg 21%
07:00 +20°C° 0 mm 1 mps 600 mmHg 17%
08:00 +22°C° 0 mm 1 mps 601 mmHg 14%
09:00 +24°C° 0 mm 1 mps 601 mmHg 12%
10:00 +26°C° 0 mm 1 mps 602 mmHg 11%
11:00 +28°C° 0 mm 1 mps 602 mmHg 10%
12:00 +28°C° 0 mm 2 mps 601 mmHg 11%
13:00 +29°C° 0 mm 3 mps 601 mmHg 12%
14:00 +29°C° 0 mm 4 mps 601 mmHg 14%
15:00 +27°C° 0 mm 4 mps 600 mmHg 27%
16:00 +25°C° 0 mm 5 mps 600 mmHg 40%
17:00 +21°C° 0 mm 6 mps 600 mmHg 54%
18:00 +20°C° 0 mm 4 mps 600 mmHg 59%
19:00 +19°C° 0 mm 3 mps 600 mmHg 65%
20:00 +17°C° 0 mm 2 mps 601 mmHg 70%
21:00 +17°C° 0 mm 2 mps 601 mmHg 73%
22:00 +16°C° 0 mm 2 mps 601 mmHg 76%
23:00 +16°C° 0 mm 2 mps 601 mmHg 79%

21 April, Wednesday

Time Temperature Precipitation Wind Pressure Humidity
00:00 +15°C° 0 mm 2 mps 601 mmHg 80%
01:00 +15°C° 0 mm 2 mps 600 mmHg 82%
02:00 +14°C° 0 mm 2 mps 600 mmHg 83%
03:00 +14°C° 0 mm 2 mps 600 mmHg 81%
04:00 +15°C° 0 mm 2 mps 601 mmHg 80%
05:00 +15°C° 0 mm 2 mps 601 mmHg 78%
06:00 +16°C° 0 mm 2 mps 601 mmHg 73%
07:00 +16°C° 0 mm 2 mps 602 mmHg 68%
08:00 +17°C° 0 mm 2 mps 603 mmHg 62%
09:00 +19°C° 0 mm 3 mps 603 mmHg 56%
10:00 +21°C° 0 mm 3 mps 603 mmHg 50%
11:00 +22°C° 0 mm 3 mps 603 mmHg 44%
12:00 +22°C° 0 mm 4 mps 603 mmHg 45%
13:00 +23°C° 0 mm 5 mps 602 mmHg 46%
14:00 +23°C° 0 mm 6 mps 602 mmHg 47%
15:00 +21°C° 0 mm 5 mps 601 mmHg 55%
16:00 +20°C° 0 mm 5 mps 601 mmHg 63%
17:00 +17°C° 0 mm 5 mps 600 mmHg 72%
18:00 +17°C° 0.1 mm 4 mps 601 mmHg 74%
19:00 +17°C° 0.1 mm 3 mps 601 mmHg 77%
20:00 +16°C° 0.1 mm 2 mps 601 mmHg 79%
21:00 +16°C° 0 mm 2 mps 601 mmHg 80%
22:00 +16°C° 0 mm 2 mps 601 mmHg 80%
23:00 +16°C° 0 mm 2 mps 601 mmHg 81%

22 April, Thursday

Time Temperature Precipitation Wind Pressure Humidity
00:00 +16°C° 0 mm 1 mps 601 mmHg 80%
01:00 +16°C° 0 mm 1 mps 601 mmHg 79%
02:00 +16°C° 0 mm 1 mps 600 mmHg 78%
03:00 +15°C° 0 mm 1 mps 600 mmHg 81%
04:00 +15°C° 0 mm 1 mps 600 mmHg 83%
05:00 +14°C° 0 mm 1 mps 600 mmHg 85%
06:00 +16°C° 0 mm 1 mps 601 mmHg 77%
07:00 +17°C° 0 mm 0 mps 601 mmHg 69%
08:00 +18°C° 0 mm 0 mps 602 mmHg 60%
09:00 +22°C° 0 mm 1 mps 602 mmHg 51%
10:00 +25°C° 0 mm 1 mps 603 mmHg 41%
11:00 +27°C° 0 mm 2 mps 603 mmHg 32%
12:00 +27°C° 0 mm 3 mps 602 mmHg 32%
13:00 +28°C° 0 mm 4 mps 602 mmHg 32%
14:00 +28°C° 0 mm 5 mps 601 mmHg 33%
15:00 +27°C° 0.5 mm 5 mps 601 mmHg 40%
16:00 +25°C° 0.5 mm 4 mps 600 mmHg 47%
17:00 +22°C° 0.5 mm 4 mps 600 mmHg 55%
18:00 +21°C° 1.8 mm 3 mps 600 mmHg 60%
19:00 +19°C° 1.8 mm 2 mps 600 mmHg 65%
20:00 +18°C° 1.8 mm 2 mps 601 mmHg 71%
21:00 +20°C° 0 mm 1 mps 601 mmHg 68%
22:00 +20°C° 0 mm 1 mps 601 mmHg 66%
23:00 +20°C° 0 mm 1 mps 600 mmHg 64%
Show more